Weather History for KHOT - January, 2014

Change the Weather History Date:

Thursday, January 16, 2014

  Actual Average Record
Temperature  
Mean Temperature 46 °F -  
Max Temperature 64 °F 50 °F 71 °F (1952)
Min Temperature 28 °F 29 °F 10 °F (1972)
Degree Days  
Heating Degree Days 19    
Moisture  
Dew Point 23 °F    
Average Humidity 42    
Maximum Humidity 72    
Minimum Humidity 23    
Precipitation  
Precipitation 0.00 in - - ()
Sea Level Pressure  
Sea Level Pressure 30.00 in    
Wind  
Wind Speed 4 mph (WNW)    
Max Wind Speed 15 mph    
Max Gust Speed 22 mph    
Visibility 10 miles    
Events      
Averages and records for this station are not official NWS values.
T = Trace of Precipitation, MM = Missing Value Source: NWS Daily Summary

Daily Weather History Graph

Daily Weather History Graph

Search for Another Location

Airport or City:

Trip Planner

Search our weather history database for the weather conditions in past years. The results will help you decide how hot, cold, wet, or windy it might be!

Date:

Astronomy

Jan. 16, 2014 Rise Set
Actual Time 7:18 AM CST 5:26 PM CST
Civil Twilight 6:51 AM CST 5:53 PM CST
Nautical Twilight 6:20 AM CST 6:24 PM CST
Astronomical Twilight 5:50 AM CST 6:54 PM CST
Moon 6:14 PM CST (1/16) 7:15 AM CST (1/16)
Length of Visible Light 11h 02m
Length of Day
10h 07m
Full, 100% of the Moon is Illuminated
Jan 16
Full
Jan 23
Last Quarter
Jan 30
New
Feb 6
First Quarter
Feb 14
Full

Hourly Weather History & Observations

Time (CST) Temp. Windchill Dew Point Humidity Pressure Visibility Wind Dir Wind Speed Gust Speed Precip Events Conditions
12:53 AM 28.9 °F 25.2 °F 21.0 °F 72% 30.07 in 10.0 mi East 3.5 mph - N/A   Mostly Cloudy
1:53 AM 33.1 °F - 23.0 °F 66% 30.06 in 10.0 mi Calm Calm - N/A   Overcast
2:53 AM 33.1 °F - 21.9 °F 64% 30.06 in 10.0 mi Calm Calm - N/A   Overcast
3:53 AM 36.0 °F - 21.9 °F 57% 30.04 in 10.0 mi Calm Calm - N/A   Overcast
4:53 AM 37.0 °F - 21.9 °F 54% 30.04 in 10.0 mi Calm Calm - N/A   Clear
5:53 AM 37.9 °F - 21.9 °F 53% 30.01 in 10.0 mi Calm Calm - N/A   Scattered Clouds
6:53 AM 37.0 °F - 21.9 °F 54% 30.00 in 10.0 mi Calm Calm - N/A   Clear
7:53 AM 37.9 °F - 23.0 °F 55% 30.00 in 10.0 mi Calm Calm - N/A   Clear
8:53 AM 42.1 °F 35.7 °F 24.1 °F 49% 30.01 in 10.0 mi WSW 11.5 mph - N/A   Clear
9:53 AM 46.0 °F 40.6 °F 25.0 °F 44% 30.00 in 10.0 mi West 11.5 mph - N/A   Clear
10:53 AM 51.1 °F - 26.1 °F 38% 29.99 in 10.0 mi WSW 11.5 mph - N/A   Clear
11:53 AM 55.9 °F - 27.0 °F 33% 29.96 in 10.0 mi West 8.1 mph - N/A   Clear
12:53 PM 60.1 °F - 28.0 °F 30% 29.93 in 10.0 mi West 10.4 mph 16.1 mph N/A   Clear
1:53 PM 63.0 °F - 28.9 °F 28% 29.91 in 10.0 mi West 8.1 mph 17.3 mph N/A   Clear
2:53 PM 64.9 °F - 26.1 °F 23% 29.89 in 10.0 mi WNW 15.0 mph 21.9 mph N/A   Clear
3:53 PM 62.1 °F - 26.1 °F 25% 29.92 in 10.0 mi NW 10.4 mph 21.9 mph N/A   Clear
4:53 PM 57.9 °F - 28.0 °F 32% 29.94 in 10.0 mi NW 9.2 mph - N/A   Clear
5:53 PM 55.9 °F - 18.0 °F 23% 29.97 in 10.0 mi NW 8.1 mph 19.6 mph N/A   Clear
6:53 PM 53.1 °F - 18.0 °F 25% 30.00 in 10.0 mi NW 6.9 mph - N/A   Clear
7:53 PM 51.1 °F - 17.1 °F 26% 30.01 in 10.0 mi WNW 3.5 mph - N/A   Clear
8:53 PM 45.0 °F - 18.0 °F 34% 30.01 in 10.0 mi Calm Calm - N/A   Clear
9:53 PM 39.9 °F - 19.9 °F 45% 30.03 in 10.0 mi Calm Calm - N/A   Scattered Clouds
10:53 PM 41.0 °F 39.0 °F 21.0 °F 45% 30.03 in 10.0 mi NW 3.5 mph - N/A   Clear
11:53 PM 41.0 °F - 21.0 °F 45% 30.05 in 10.0 mi Calm Calm - N/A   Clear